Content
SEND FEEDBACK

Daily
Averages
Monthly
Summary
Mauritania

NOUADHIBOU, MAURITANIA


Home > Africa > Mauritania
Elevation: 10 feet     Latitude: 20 56N     Longitude: 017 02W

WEATHER
 
SELECT A DAY
Number of Records: 117,625;   Date Range: 7/1/96 - 7/27/14
 
SHARE

PRINT THIS DATA

[ ← Previous Day ]
WEATHER ALMANAC - MARCH 28, 2013
[ Next Day → ]
[ °C ]   °F
Weather ElementAverageHighLow
Temperature68.4 °F80.6 °F (1:00 pm)62 °F (6:00 am)
Dewpoint59.2 °F62 °F (9:00 am)55.4 °F (1:00 pm)
Humidity72.3 %97 % (6:00 am)42 % (1:00 pm)
Barometer30.01 in30.09 in (12:00 pm)29.95 in (5:00 am)
Wind Speed18.5 mph21.9 mph (8:00 am)
Weather ElementAverage
Visibility5 mi
Wind DirectionWNW (282.7 °)

Weather ElementTotal
Precipitation---
Cooling Degree Days6.3 (Base 65)
Growing Degree Days21.3 (Base 50)
Averaged from 30 records on March 28, 2013
WEATHER CONDITIONS BREAKOUT
WIND DIRECTION BREAKOUT
WEATHER BY HOUR - MARCH 28, 2013
[ °C ]   °F
Local TimeTemperatureDewpointHumidityBarometerVisibilityWind DirectionWind SpeedGust SpeedPrecipitationEventsConditions
12:00 AM64.4 °F59.0 °F83 %30.01 in5.0 miNNW (340°)18.4 mph
1:00 AM64.4 °F59.0 °F83 %30.01 in5.0 miNorth (350°)17.3 mph
2:00 AM64.4 °F59.0 °F83 %29.98 in5.0 miNorth (350°)17.3 mph
3:00 AM62.6 °F59.0 °F88 %29.98 in5.0 miNorth (350°)17.3 mph
4:00 AM62.6 °F59.0 °F88 %29.98 in5.0 miNorth (350°)18.4 mph
5:00 AM62.6 °F59.0 °F88 %29.95 in5.0 miNorth (350°)19.6 mph
6:00 AM62.6 °F59.0 °F88 %29.98 in5.0 miNorth (350°)17.3 mphScattered Clouds
6:00 AM62.0 °F61.0 °F97 %30.01 in5.0 miNorth (350°)17.3 mphPartly Cloudy
7:00 AM62.6 °F59.0 °F88 %30.01 in5.0 miNorth (350°)20.7 mphMostly Cloudy
8:00 AM64.4 °F59.0 °F83 %30.04 in5.0 miNorth (360°)21.9 mphScattered Clouds
9:00 AM66.0 °F62.0 °F82 %30.06 in5.0 miNorth (10°)21.9 mphScattered Clouds
9:00 AM66.2 °F59.0 °F78 %30.04 in5.0 miNorth (10°)21.9 mphPartly Cloudy
10:00 AM68.0 °F59.0 °F73 %30.04 in5.0 miNNE (20°)19.6 mph
11:00 AM71.6 °F59.0 °F64 %30.06 in5.0 miNNE (20°)17.3 mphClear
12:00 PM75.2 °F57.2 °F53 %30.06 in5.0 miNorth (360°)19.6 mph
12:00 PM76.0 °F58.0 °F43 %30.09 in5.0 miNorth19.6 mph
1:00 PM80.6 °F55.4 °F42 %30.04 in5.0 miNorth (360°)20.7 mph
2:00 PM77.0 °F60.8 °F57 %30.04 in5.0 miNW (310°)16.1 mph
3:00 PM74.0 °F61.0 °F55 %30.02 in5.0 miNW (320°)17.3 mph
3:00 PM73.4 °F60.8 °F65 %30.01 in5.0 miNW (310°)18.4 mph
4:00 PM75.2 °F59.0 °F57 %29.98 in5.0 miNW (310°)16.1 mph
5:00 PM73.4 °F59.0 °F61 %29.95 in5.0 miNW (310°)16.1 mph
6:00 PM69.8 °F59.0 °F68 %29.95 in5.0 miNW (310°)21.9 mph
6:00 PM72.0 °F61.0 °F60 %29.98 in5.0 miNW (310°)20.7 mph
7:00 PM69.8 °F59.0 °F68 %29.98 in5.0 miNW (320°)17.3 mph
8:00 PM68.0 °F57.2 °F68 %30.01 in5.0 miNNW (330°)19.6 mph
9:00 PM66.0 °F61.0 °F78 %30.05 in5.0 miNNW (340°)16.1 mph
9:00 PM66.2 °F59.0 °F78 %30.04 in5.0 miNNW (340°)17.3 mph
10:00 PM66.2 °F59.0 °F78 %30.04 in5.0 miNNW (340°)16.1 mph
11:00 PM66.2 °F57.2 °F73 %30.04 in5.0 miNorth (350°)16.1 mph
Hourly data recorded from GQPP, located miles away from Nouadhibou, Mauritania







STORIES FROM OUR PARTNERS